Regional Weather Roundup
Issued by NWS

Home | Current Version | Previous Version | Graphics & Text | Print | Product List | Glossary On
Versions: 1 2 3 4 5 6 7 8 9 10 11 12 13 14 15 16 17 18 19 20 21 22 23 24 25 26 27 28 29 30 31 32 33 34 35 36 37 38 39 40 41 42 43 44 45 46 47 48 49 50
000
ASUS43 KFSD 182202
RWRSD

WEATHER ROUNDUP FOR SOUTH DAKOTA
NATIONAL WEATHER SERVICE SIOUX FALLS SD
500 PM CDT MON SEP 18 2017

NOTE: "FAIR" INDICATES FEW OR NO CLOUDS BELOW 12,000 FEET WITH NO
SIGNIFICANT WEATHER AND/OR OBSTRUCTIONS TO VISIBILITY.


SDZ001>005-009-010-012>017-182300-
NORTHWEST AND NORTH CENTRAL SOUTH DAKOTA

CITY           SKY/WX    TMP DP  RH WIND       PRES   REMARKS
BUFFALO          N/A     78  34  20 S13       29.69F
FAITH            N/A     77  34  21 SE15      29.78
MOBRIDGE       SUNNY     76  43  30 CALM      29.77F
$$

SDZ012>016-024>037-041>051-057-063-072>074-182300-
SOUTHWEST AND SOUTH CENTRAL SOUTH DAKOTA

CITY           SKY/WX    TMP DP  RH WIND       PRES   REMARKS
RAPID CTY ARPT SUNNY     79  34  19 S12       29.77F
PIERRE         SUNNY     78  50  37 S6        29.77F
CUSTER         CLOUDY    69  30  23 S8        29.90F
ELLSWORTH AFB  MOSUNNY   81  36  20 S13       29.76F
PHILIP         SUNNY     81  42  25 VRB5      29.76F
PINE RIDGE     SUNNY     83  32  16 VRB3      29.81F
SPEARFISH      FAIR      77  32  19 VRB6      29.80F
WINNER         FAIR      81  58  45 S10       29.79F
$$

SDZ004>011-016>023-039-040-182300-
NORTHEAST SOUTH DAKOTA

CITY           SKY/WX    TMP DP  RH WIND       PRES   REMARKS
ABERDEEN       SUNNY     79  52  38 S7        29.78F
WATERTOWN      MOSUNNY   71  61  70 S14       29.83F
BROOKINGS      MOSUNNY   70  60  70 SE10      29.86F
SISSETON         N/A     72  61  68 SE14      29.81S
$$

SDZ017-020-022-023-036>040-048>070-182300-
SOUTHEAST SOUTH DAKOTA

CITY           SKY/WX    TMP DP  RH WIND       PRES   REMARKS
SIOUX FALLS    MOSUNNY   74  63  68 S12       29.85F
HURON          SUNNY     80  56  43 S12G20    29.79F
CHAMBERLAIN    SUNNY     80  58  47 S10       29.79S
MITCHELL       MOSUNNY   79  60  52 S12       29.81S
YANKTON        SUNNY     74  64  71 S8        29.84F
$$

ABBREVIATIONS USED IN REMARKS
   TC - TEMPERATURE IN CELSIUS
  WCI - WIND CHILL INDEX
   HX - HEAT INDEX
  VSB - VISIBILITY





USA.gov is the U.S. government's official web portal to all federal, state and local government web resources and services.